Location: Unspecified
(0.0000°N, 0.0000°E)
Time: 21:40:25
(UTC+02:00)

ASC 2 Rocket - Visible Passes

Search period start: 25 October 2014 00:00
Search period end: 03 November 2014 23:00
Orbit: 555 x 2349 km, 24.0° (Epoch: 24 October)

Date Brightness Start Highest point End Pass type
(mag) Time Alt. Az. Time Alt. Az. Time Alt. Az.
25 Oct 5.7 20:39:26 10° NW 20:53:02 55° NNE 21:00:04 24° E visible
25 Oct 5.6 22:45:41 10° WNW 22:55:00 53° W 22:55:00 53° W visible
26 Oct 5.2 20:37:22 10° WNW 20:51:04 85° NNE 20:54:00 56° ESE visible
26 Oct 6.8 22:44:56 10° W 22:48:55 22° W 22:48:55 22° W visible
27 Oct 5.7 19:29:23 10° NW 19:43:41 67° NNE 19:53:04 17° ESE visible
27 Oct 5.5 21:36:01 10° WNW 21:47:59 59° SW 21:47:59 59° SW visible
28 Oct 5.7 06:02:44 10° S 06:04:28 12° SSE 06:06:17 10° SE visible
28 Oct 5.5 20:27:30 10° WNW 20:41:37 80° SSW 20:47:06 37° SE visible
28 Oct 6.6 22:35:48 10° W 22:42:02 27° WSW 22:42:02 27° WSW visible
29 Oct 5.7 19:19:29 10° WNW 19:34:08 81° NNE 19:45:54 10° ESE visible
29 Oct 5.8 21:26:32 10° W 21:39:13 49° SSW 21:41:10 45° S visible
30 Oct 5.4 05:53:04 10° SSW 05:55:55 18° SSE 05:58:53 10° ESE visible
30 Oct 5.8 20:17:50 10° WNW 20:32:03 67° SSW 20:40:19 22° SE visible
30 Oct 6.5 22:26:50 10° W 22:35:15 28° SW 22:35:15 28° SW visible
31 Oct 5.7 04:49:19 10° S 04:50:20 11° SSE 04:51:19 10° SSE visible
31 Oct 5.9 19:09:46 10° WNW 19:24:27 86° SSW 19:36:54 10° ESE visible
31 Oct 6.2 21:17:16 10° W 21:29:49 42° SSW 21:34:23 30° SSE visible
31 Oct 7.3 23:28:25 10° WSW 23:29:19 12° SW 23:29:19 12° SW visible
01 Nov 4.6 05:43:47 10° SW 05:47:23 28° SSE 05:50:59 10° E visible
01 Nov 6.2 20:08:23 10° W 20:22:26 56° SSW 20:33:28 11° SE visible
01 Nov 6.6 22:18:00 10° WSW 22:27:47 26° SSW 22:28:24 26° SSW visible
02 Nov 5.3 04:41:15 17° S 04:41:55 17° SSE 04:44:42 10° ESE visible
02 Nov 6.1 19:00:16 10° WNW 19:14:42 73° SSW 19:27:40 10° ESE visible
02 Nov 6.6 21:08:12 10° W 21:20:29 36° SSW 21:27:26 20° SSE visible
02 Nov 7.2 23:19:45 10° SW 23:22:21 14° SW 23:22:21 14° SW visible
03 Nov 3.7 05:35:07 12° SW 05:38:53 48° SSE 05:42:47 10° E visible
03 Nov 6.5 19:59:10 10° W 20:12:51 48° SSW 20:24:32 10° SE visible
03 Nov 6.7 22:09:16 10° WSW 22:18:50 23° SSW 22:21:18 22° S visible
